{"data":{"norad_id":57742,"intl_designator":"2023-131L","name":"STARLINK-30308","alt_names":[],"object_type":"PAYLOAD","status":"ACTIVE","operator":null,"country":"US","launch_date":"2023-09-01","launch_site_code":"AFETR","launch_vehicle":null,"mission":null,"orbit_class":"UNKNOWN","rcs_meters":null,"size_class":null,"mass_kg":null,"dimensions":null,"purposes":["comms"],"wikipedia_slug":null,"has_3d_model":false,"image_url":null,"decayed_at":null,"tle_current":{"epoch":"2026-09-20T09:26:40.485696Z","epoch_age_seconds":140345,"freshness":"FRESH","line1":"1 57742U 23131L   26263.39352414 -.00001286  00000+0 -37232-4 0  9994","line2":"2 57742  43.0020 152.8928 0001258 268.1504  91.9203 15.27575025169709","mean_motion":15.27575025,"eccentricity":0.0001258,"inclination_deg":43.002,"raan_deg":152.8928,"arg_perigee_deg":268.1504,"mean_anomaly_deg":91.9203,"bstar":-3.7232e-5,"rev_number":16970,"period_min":94.267055721208,"perigee_km":482.20085393491,"apogee_km":483.92713210475,"semimajor_km":6861.2009930198,"source":"CELESTRAK","updated_at":"2026-09-21T09:00:33.680411Z"}}}